一网星座-0138星 (ONEWEB-0138 )

导读 | 豆包AI

ONEWEB-0138是英国OneWeb公司低轨互联网卫星星座中的一颗卫星,于2020年12月18日发射升空,运行在近地轨道。OneWeb星座旨在通过低轨卫星组网实现全球互联网覆盖,为偏远地区、海洋等场景提供宽带接入服务,ONEWEB-0138作为组网卫星之一,承担着信号中继传输任务,助力全球无缝互联目标的推进。

基本信息
目录编号:
47284
目录名称:
ONEWEB-0138
国际标识:
2020-100AC
轨道中心:
EARTH
卫星名称:
一网星座-0138星
卫星全名:
一网星座-0138星 (ONEWEB-0138 )
卫星状态:
在轨 (已飞行1912 天)
发射日期:
2020-12-18 UTC
国别 :
英国 (GB)
星等 :
--
轨道信息
数据来源 国际轨道数据
星历时间: 2026-03-13T15:07:47+0800
1天前
查看轨道信息
半长轴: 7591.862km
偏心率: 0.000201
轨道倾角: 87.901°
近地点辐角 80.921°
升交点赤经 9.696°
平近点角 279.214°
近地点: 1212.199km
远地点: 1215.251km
周期: 109.719分钟
每日圈数: 13.124426
详细信息
平衡模式:
三轴稳定
覆盖范围:
全球
运营商:
一网卫星公司
运营商所在国:
英国
制造商(研发单位):
一网卫星公司
制造商所在国:
英国
使用方式:
暂无
卫星简介
OneWeb卫星网络由648颗重约125公斤的微型卫星组成,运行在1200公里的轨道上。 每颗卫星都能够提供至少每秒8千兆位的吞吐量,以使用其高吞吐量的Ku频段有效载荷为家庭和移动平台提供互联网接入。该卫星仍在工作。
2D轨道图
3D轨道图
轨道高度分析图
轨道倾角分析图
轨道综合分析图
查看轨道综合分析图